Flag for U.S.A. Weather past 2 weeks in Freehold, New Jersey, U.S.A.

Now
32 °F

Mostly cloudy.


Feels Like: 32 °F
Forecast: 23 / 36 °F
Wind: No wind

Location: Belmar-Farmdale

Current Time: Mar 2, 2015 at 7:16:46 AM

Latest Report: Mar 2, 2015 at 6:55 AM


Visibility: 3 mi

Pressure: 30.04 "Hg

Humidity: 80%

Dew point: 27 °F

Location of FreeholdLocation

Historic Weather in Freehold — Graph

°F

Freehold temperature yesterday

Maximum temperature yesterday: 32 °F (at 9:35 PM)
Minimum temperature yesterday: 16 °F (at 2:15 AM)
Average temperature yesterday: 25 °F

Past Weeks' High & Low Weather Summary

 TemperatureHumidityPressure
High43 °F (Feb 22, 1:55 PM)86% (Feb 21, 7:35 PM)30.81 "Hg (Feb 21, 7:35 PM)
Low0 °F (Feb 20, 6:55 AM)28% (Feb 23, 4:35 PM)29.62 "Hg (Feb 15, 6:15 AM)
Average21 °F54%30.17 "Hg
* Reported Feb 15 6:15 AM — Mar 2 6:15 AM, Freehold, Weather by CustomWeather, © 2015

Note: Actual official high and low records may vary slightly from our data, if they occured in-between our weather recording intervals... More about our weather records

Advertising

Freehold weather history for previous 24 hours

 ConditionsComfort  
Time TempWeatherWind HumidityBarometerVisibility
6:15 AM
Mon, Mar 2
32 °FOvercast.No wind80%30.03 "Hg3 mi
5:55 AM32 °FMostly cloudy.No wind80%30.03 "Hg3 mi
5:35 AM32 °FLow clouds.No wind80%30.03 "Hg3 mi
5:15 AM30 °FPassing clouds.No wind86%30.04 "Hg3 mi
4:55 AM32 °FLow clouds.No wind80%30.03 "Hg3 mi
4:35 AM32 °FMostly cloudy.No wind80%30.04 "Hg3 mi
4:15 AM32 °FLow clouds.No wind80%30.04 "Hg3 mi
3:55 AM32 °FLow clouds.No wind80%30.06 "Hg3 mi
3:35 AM32 °FLow clouds.No wind80%30.07 "Hg4 mi
3:15 AM32 °FLow clouds.No wind80%30.07 "Hg4 mi
2:55 AM32 °FLow clouds.No wind80%30.07 "Hg5 mi
2:35 AM32 °FLow clouds.No wind80%30.09 "Hg5 mi
2:15 AM32 °FLow clouds.No wind80%30.08 "Hg4 mi
1:55 AM32 °FLow clouds.No wind80%30.09 "Hg4 mi
1:35 AM32 °FLow clouds.No wind80%30.10 "Hg5 mi
1:15 AM32 °FLow clouds.No wind80%30.10 "Hg5 mi
12:55 AM32 °FLow clouds.No wind80%30.10 "Hg4 mi
12:35 AM32 °FMostly cloudy.No wind80%30.12 "Hg3 mi
12:15 AM32 °FMostly cloudy.No wind80%30.14 "Hg3 mi
11:55 PM
Sun, Mar 1
32 °FLow clouds.No wind80%30.14 "Hg2 mi
11:35 PM32 °FLow clouds.No wind80%30.16 "Hg1 mi
11:15 PM32 °FLow clouds.No wind80%30.17 "Hg2 mi
10:55 PM32 °FLow clouds.No wind80%30.18 "Hg3 mi
10:35 PM32 °FLow clouds.No wind80%30.19 "Hg3 mi
10:15 PM32 °FLow clouds.No wind80%30.19 "Hg3 mi
9:55 PM32 °FLow clouds.No wind80%30.20 "Hg4 mi
9:35 PM32 °FLow clouds.No wind80%30.21 "Hg4 mi
9:15 PM30 °FMostly cloudy.No wind86%30.23 "Hg3 mi
8:55 PM30 °FMostly cloudy.No wind86%30.25 "Hg4 mi
8:35 PM30 °FMostly cloudy.No wind86%30.26 "Hg5 mi
8:15 PM30 °FLow clouds.No wind86%30.27 "Hg6 mi
7:55 PM30 °FLow clouds.No wind80%30.27 "Hg5 mi
7:35 PM30 °FLow clouds.No wind80%30.28 "Hg5 mi
7:15 PM30 °FMostly cloudy.No wind80%30.29 "Hg5 mi
6:55 PM30 °FMostly cloudy.No wind80%30.31 "Hg4 mi
6:35 PM28 °FLow clouds.No wind86%30.32 "Hg4 mi
6:15 PM28 °FMostly cloudy.No wind80%30.32 "Hg5 mi
5:55 PM28 °FLow clouds.No wind80%30.33 "Hg4 mi
5:35 PM28 °FMostly cloudy.No wind80%30.35 "Hg3 mi
5:15 PM28 °FMostly cloudy.No wind74%30.35 "Hg5 mi
4:35 PM27 °FMostly cloudy.No wind80%30.38 "Hg3 mi
4:15 PM27 °FOvercast.No wind74%30.39 "Hg3 mi
3:55 PM27 °FMostly cloudy.No wind74%30.40 "Hg5 mi
3:35 PM27 °FMostly cloudy.5 mph74%30.41 "Hg5 mi
3:15 PM27 °FMostly cloudy.No wind74%30.43 "Hg5 mi
2:35 PM25 °FOvercast.No wind74%30.46 "Hg8 mi
2:15 PM25 °FMostly cloudy.No wind80%30.47 "Hg5 mi
1:55 PM27 °FCloudy.No wind74%30.49 "Hg2 mi
1:35 PM25 °FOvercast.No wind74%30.51 "Hg1 mi
1:15 PM25 °FMore clouds than sun.5 mph74%30.52 "Hg1 mi
12:55 PM25 °FCloudy.3 mph74%30.53 "Hg1 mi
12:35 PM25 °FOvercast.5 mph74%30.55 "Hg1 mi
11:55 AM25 °FMore clouds than sun.7 mph69%30.59 "Hg1 mi
11:35 AM27 °FCloudy.12 mph50%30.60 "Hg2 mi
11:15 AM28 °FMostly cloudy.13 mph40%30.60 "Hg10 mi
10:35 AM28 °FMostly cloudy.12 mph37%30.61 "Hg10 mi
10:15 AM28 °FMore clouds than sun.10 mph37%30.61 "Hg10 mi
9:55 AM28 °FOvercast.5 mph37%30.60 "Hg10 mi
9:35 AM28 °FOvercast.6 mph40%30.63 "Hg10 mi
9:15 AM27 °FOvercast.5 mph43%30.62 "Hg10 mi
8:55 AM27 °FOvercast.5 mph43%30.65 "Hg10 mi
8:35 AM27 °FMostly cloudy.3 mph43%30.64 "Hg10 mi
8:15 AM25 °FOvercast.3 mph39%30.65 "Hg10 mi
7:55 AM25 °FOvercast.No wind50%30.66 "Hg10 mi
7:35 AM21 °FOvercast.No wind54%30.65 "Hg10 mi
7:15 AM21 °FOvercast.No wind58%30.65 "Hg10 mi
Weather by CustomWeather, © 2015

See weather overviewHow to use our weather pages